Content
SEND FEEDBACK

Daily
Averages
Monthly
Summary
United States of America

STATEN ISLAND, NEW YORK


Home > North America > United States > New York
Elevation: 46 meters     Latitude: 40 35N     Longitude: 074 09W

WEATHER
 
SELECT A DAY
Number of Records: 189,786;   Date Range: 1/1/95 - 8/30/14
 
SHARE

PRINT THIS DATA

[ ← Previous Day ]
WEATHER ALMANAC - 29 JANUARY, 2013
[ Next Day → ]
[ °F ]   °C
Weather ElementAverageHighLow
Temperature6.4 °C11.1 °C (10:51 am)2.2 °C (1:51 am)
Dewpoint4 °C5.6 °C (9:51 am)1.1 °C (1:51 am)
Humidity85.6 %97 % (4:51 am)63 % (10:51 am)
Barometer1019.3 hPa1020.3 hPa (9:51 am)1016.3 hPa (1:51 am)
Wind Speed6 km/h18.5 km/h (1:51 pm)
Wind Gust25.9 km/h (3:43 pm)
Weather ElementAverage
Visibility8.9 km
Wind DirectionENE (71 °)

Weather ElementTotal
Precipitation2.03 mm
Heating Degree Days11.7 (Base 18.3)
Averaged from 29 records on 29 January, 2013
WEATHER CONDITIONS BREAKOUT
WIND DIRECTION BREAKOUT
WEATHER BY HOUR - 29 JANUARY, 2013
[ °F ]   °C
Local TimeTemperatureDewpointHumidityBarometerVisibilityWind DirectionWind SpeedGust SpeedPrecipitationEventsConditions
1:51 AM2.2 °C1.1 °C93 %1016.3 hPa8 kmWSW (240°)11.1 km/hOvercast
2:51 AM2.8 °C1.7 °C93 %1016.3 hPa11.3 kmWSW (240°)5.6 km/hOvercast
3:51 AM2.8 °C2.2 °C96 %1016.3 hPa11.3 kmSW (220°)11.1 km/hOvercast
4:51 AM3.3 °C2.8 °C97 %1017.3 hPa11.3 kmCalmOvercast
5:51 AM3.3 °C2.2 °C93 %1018.6 hPa11.3 kmCalmOvercast
6:51 AM3.3 °C2.2 °C93 %1019 hPa9.7 kmCalmOvercast
7:51 AM6 °C4 °C87 %1019.6 hPa9.7 kmCalmOvercast
8:51 AM6.1 °C4.4 °C89 %1019.6 hPa9.7 kmSSW (200°)5.6 km/hOvercast
9:51 AM8.9 °C5.6 °C80 %1020.3 hPa11.3 kmCalmMostly Cloudy
10:51 AM11.1 °C4.4 °C63 %1020.3 hPa14.5 kmNorth (10°)9.3 km/hMostly Cloudy
11:51 AM11.1 °C4.4 °C63 %1019.3 hPa16.1 kmEast (90°)9.3 km/hMostly Cloudy
12:51 PM10.6 °C3.9 °C63 %1019.3 hPa16.1 kmESE (110°)13 km/hMostly Cloudy
1:51 PM7.2 °C3.9 °C80 %1019 hPa9.7 kmESE (120°)18.5 km/hHaze
2:51 PM7.2 °C3.9 °C80 %1019.6 hPa9.7 kmVariable11.1 km/hHaze
3:43 PM8 °C4 °C76 %1019.3 hPa8 kmESE (120°)9.3 km/h25.9 km/hHaze
3:51 PM7.8 °C4.4 °C79 %1019.6 hPa8 kmESE (110°)7.4 km/hHaze
4:22 PM7 °C4 °C81 %1020 hPa6.4 kmSE (140°)9.3 km/hHaze
4:51 PM6.7 °C3.9 °C82 %1020 hPa6.4 kmESE (110°)9.3 km/hHaze
5:35 PM7 °C4 °C81 %1020.3 hPa6.4 kmENE (70°)7.4 km/hHaze
5:51 PM6.7 °C4.4 °C85 %1020.3 hPa6.4 kmEast (90°)11.1 km/hOvercast
6:51 PM6.1 °C4.4 °C89 %1020.3 hPa6.4 kmVariable7.4 km/h1.02 mmRainLight Rain
7:42 PM6 °C5 °C93 %1020.3 hPa6.4 kmCalm0.51 mmRainLight Rain
7:51 PM6.1 °C5 °C93 %1020 hPa6.4 kmSE (130°)9.3 km/h0.51 mmRainLight Rain
8:28 PM6 °C5 °C93 %1020.3 hPa6.4 kmCalm0 mmOvercast
8:51 PM6.1 °C5 °C93 %1020.3 hPa6.4 kmCalm0 mmOvercast
9:41 PM7 °C5 °C87 %1019.6 hPa6.4 kmCalmOvercast
9:51 PM6.1 °C5 °C93 %1019.6 hPa6.4 kmCalmOvercast
10:51 PM6.1 °C5 °C93 %1019 hPa4.8 kmCalmOvercast
11:51 PM6.7 °C5.6 °C93 %1019 hPa4.8 kmENE (60°)7.4 km/hOvercast
Hourly data recorded from KEWR, located 0 kilometers away from Staten Island, New York







STORIES FROM OUR PARTNERS